This demonstration page uses our WeatherBlox Daily Observations layout. Learn more.

Left ArrowRight Arrow

44.8408, -93.29828

Hourly Observations for May 28, 2015

Temp ( °F °C ) Dew Point ( °F °C ) Humidity (%) Winds ( mph kmh ) Pressure ( in mb ) Visibility ( mi km ) Precip ( " mm )
12:53 am 00:53 Clear 68 20 56 13.3 65 65 ESE 5 7 30.02 1017 9 14 0.00 0.00
1:53 am 01:53 Clear 66 18.9 57 13.9 73 73 ESE 3 6 30.03 1017 9 14 0.00 0.00
2:53 am 02:53 Clear 64 17.8 56 13.3 75 75 E 3 6 30.02 1017 9 14 0.00 0.00
3:53 am 03:53 Mostly Clear 63 17.2 55 12.8 76 76 ESE 3 6 30.01 1016 9 14 0.00 0.00
4:53 am 04:53 Mostly Clear 63 17.2 54 12.2 73 73 SSE 3 6 30.02 1017 9 14 0.00 0.00
5:53 am 05:53 Partly Cloudy 63 17.2 54 12.2 73 73 Calm 30.04 1017 8 13 0.00 0.00
6:53 am 06:53 Partly Cloudy 64 17.8 56 13.3 75 75 Calm 30.05 1018 9 14 0.00 0.00
7:53 am 07:53 Mostly Cloudy 70 21.1 55 12.8 59 59 S 6 9 30.05 1018 10 16 0.00 0.00
8:53 am 08:53 Mostly Cloudy 73 22.8 54 12.2 51 51 S 6 9 30.05 1018 10 16 0.00 0.00
9:53 am 09:53 Partly Cloudy 78 25.6 54 12.2 43 43 SSW 9 15 30.04 1017 10 16 0.00 0.00
10:53 am 10:53 Partly Cloudy 79 26.1 55 12.8 44 44 SSW 8 13 30.04 1017 10 16 0.00 0.00
11:53 am 11:53 Partly Cloudy 81 27.2 52 11.1 37 37 SW 13 20 30.03 1017 10 16 0.00 0.00
12:53 pm 12:53 Partly Cloudy 82 27.8 53 11.7 37 37 SSW 13 20 30.01 1016 10 16 0.00 0.00
1:53 pm 13:53 Partly Cloudy 82 27.8 55 12.8 40 40 S 14 22 30.00 1016 10 16 0.00 0.00
2:53 pm 14:53 Partly Cloudy 82 27.8 52 11.1 35 35 S 16 26 29.99 1016 10 16 0.00 0.00
3:53 pm 15:53 Partly Cloudy 83 28.3 53 11.7 36 36 SSE 15 24 29.97 1015 10 16 0.00 0.00
4:53 pm 16:53 Mostly Cloudy 83 28.3 48 8.9 30 30 S 23 37 29.96 1014 10 16 0.00 0.00
5:53 pm 17:53 Mostly Cloudy 82 27.8 51 10.6 34 34 S 13 20 29.93 1014 10 16 0.00 0.00
6:53 pm 18:53 Mostly Cloudy 81 27.2 50 10 34 34 S 17 28 29.89 1012 10 16 0.00 0.00
7:53 pm 19:53 Mostly Cloudy 81 27.2 51 10.6 35 35 S 20 31 29.88 1012 10 16 0.00 0.00
8:53 pm 20:53 Cloudy 77 25 51 10.6 40 40 SE 10 17 29.88 1012 10 16 0.00 0.00
9:53 pm 21:53 Cloudy 76 24.4 52 11.1 43 43 S 13 20 29.91 1013 10 16 0.00 0.00
10:53 pm 22:53 Cloudy 75 23.9 53 11.7 46 46 S 9 15 29.92 1013 10 16 0.00 0.00
11:53 pm 23:53 Cloudy 74 23.3 56 13.3 54 54 SSW 9 15 29.91 1013 10 16 0.00 0.00

Powered by AerisWeather